User: anonymous   Login
Location: Unspecified
(0.0000°N, 0.0000°E)
Time: 23:16:11
(UTC+00:00)
Language:

Altair - Orbit

View from above orbital plane
View from above orbital plane
View from above satellite
View from above satellite

Ground track
Ground track

The orbit data is extracted from the following two-line orbital elements,

1    50U 60009B   17023.94422434 -.00000098 +00000-0 -12983-3 0  9990
2    50 047.2338 011.3602 0114126 228.9524 130.1357 12.20099110518766
Epoch (UTC): 23 January 2017 22:39:40
Eccentricity: 0.0114126
inclination: 47.2338°
perigee height: 1501 km
apogee height: 1683 km
right ascension of ascending node: 11.3602°
argument of perigee: 228.9524°
revolutions per day: 12.20099110
mean anomaly at epoch: 130.1357°
orbit number at epoch: 51876

The dashed part of the orbit path shows where the satellite is in the earth's shadow,  

DLR